• In Deutschland
  • Länderverzeichnis
  • Für 7 Tage
  • Wassertemperatur
  • Satellitenkarten
  • Wetterkarte
  • Widgets
  • user-avatar
    Anmelden

    Stündliche Wetter Kamen

    Heute, 17 August, Freitag

    Zeit Temperatur Niederschläge Wind Luftdruck Luftfeuchtigkeit
    00:00 +21°C° 0 mm 1 m/S 755 mmHg 71%
    01:00 +20°C° 0 mm 1 m/S 755 mmHg 73%
    02:00 +20°C° 0 mm 1 m/S 755 mmHg 75%
    03:00 +19°C° 0 mm 1 m/S 755 mmHg 77%
    04:00 +18°C° 0 mm 2 m/S 755 mmHg 80%
    05:00 +18°C° 0 mm 2 m/S 755 mmHg 80%
    06:00 +18°C° 0 mm 2 m/S 755 mmHg 80%
    07:00 +19°C° 0 mm 2 m/S 755 mmHg 81%
    08:00 +19°C° 0,1 mm 2 m/S 756 mmHg 78%
    09:00 +20°C° 0,1 mm 3 m/S 756 mmHg 75%
    10:00 +21°C° 0,1 mm 3 m/S 756 mmHg 73%
    11:00 +21°C° 0,1 mm 3 m/S 756 mmHg 71%
    12:00 +21°C° 0,1 mm 3 m/S 756 mmHg 70%
    13:00 +22°C° 0,1 mm 3 m/S 756 mmHg 69%
    14:00 +22°C° 0 mm 3 m/S 757 mmHg 67%
    15:00 +23°C° 0 mm 2 m/S 757 mmHg 66%
    16:00 +23°C° 0 mm 2 m/S 757 mmHg 65%
    17:00 +23°C° 0 mm 2 m/S 757 mmHg 65%
    18:00 +21°C° 0 mm 2 m/S 757 mmHg 66%
    19:00 +22°C° 0 mm 1 m/S 758 mmHg 66%
    20:00 +21°C° 0 mm 1 m/S 758 mmHg 69%
    21:00 +20°C° 0 mm 1 m/S 758 mmHg 72%
    22:00 +19°C° 0 mm 1 m/S 759 mmHg 76%
    23:00 +18°C° 0 mm 1 m/S 759 mmHg 77%

    Morgen, 18 August, Samstag

    Zeit Temperatur Niederschläge Wind Luftdruck Luftfeuchtigkeit
    00:00 +18°C° 0 mm 1 m/S 759 mmHg 79%
    01:00 +16°C° 0 mm 1 m/S 760 mmHg 81%
    02:00 +16°C° 0 mm 1 m/S 760 mmHg 81%
    03:00 +15°C° 0 mm 1 m/S 760 mmHg 82%
    04:00 +15°C° 0 mm 1 m/S 760 mmHg 83%
    05:00 +16°C° 0 mm 1 m/S 760 mmHg 80%
    06:00 +16°C° 0 mm 1 m/S 760 mmHg 77%
    07:00 +18°C° 0 mm 1 m/S 760 mmHg 75%
    08:00 +18°C° 0 mm 2 m/S 760 mmHg 66%
    09:00 +20°C° 0 mm 2 m/S 760 mmHg 57%
    10:00 +23°C° 0 mm 2 m/S 760 mmHg 49%
    11:00 +24°C° 0 mm 3 m/S 760 mmHg 45%
    12:00 +25°C° 0 mm 3 m/S 760 mmHg 40%
    13:00 +26°C° 0 mm 3 m/S 760 mmHg 36%
    14:00 +26°C° 0 mm 3 m/S 759 mmHg 36%
    15:00 +26°C° 0 mm 3 m/S 759 mmHg 36%
    16:00 +27°C° 0 mm 3 m/S 759 mmHg 36%
    17:00 +26°C° 0 mm 3 m/S 759 mmHg 42%
    18:00 +25°C° 0 mm 2 m/S 759 mmHg 48%
    19:00 +23°C° 0 mm 2 m/S 759 mmHg 54%
    20:00 +21°C° 0 mm 2 m/S 760 mmHg 60%
    21:00 +20°C° 0 mm 2 m/S 760 mmHg 65%
    22:00 +20°C° 0 mm 1 m/S 761 mmHg 70%
    23:00 +19°C° 0 mm 1 m/S 761 mmHg 74%

    übermorgen, 19 August, Sonntag

    Zeit Temperatur Niederschläge Wind Luftdruck Luftfeuchtigkeit
    00:00 +19°C° 0 mm 1 m/S 761 mmHg 78%
    01:00 +18°C° 0 mm 1 m/S 761 mmHg 82%
    02:00 +18°C° 0 mm 1 m/S 761 mmHg 84%
    03:00 +18°C° 0 mm 1 m/S 761 mmHg 85%
    04:00 +18°C° 0 mm 1 m/S 761 mmHg 87%
    05:00 +18°C° 0 mm 1 m/S 761 mmHg 85%
    06:00 +19°C° 0 mm 1 m/S 761 mmHg 83%
    07:00 +19°C° 0 mm 1 m/S 761 mmHg 81%
    08:00 +21°C° 0 mm 1 m/S 761 mmHg 73%
    09:00 +23°C° 0 mm 2 m/S 761 mmHg 66%
    10:00 +24°C° 0 mm 2 m/S 761 mmHg 59%
    11:00 +25°C° 0 mm 2 m/S 761 mmHg 55%
    12:00 +26°C° 0 mm 2 m/S 760 mmHg 51%
    13:00 +27°C° 0 mm 2 m/S 760 mmHg 47%
    14:00 +28°C° 0 mm 2 m/S 760 mmHg 46%
    15:00 +28°C° 0 mm 2 m/S 759 mmHg 45%
    16:00 +29°C° 0 mm 2 m/S 759 mmHg 43%
    17:00 +28°C° 0 mm 2 m/S 759 mmHg 48%
    18:00 +27°C° 0 mm 2 m/S 759 mmHg 52%
    19:00 +25°C° 0 mm 1 m/S 759 mmHg 57%
    20:00 +24°C° 0 mm 1 m/S 759 mmHg 61%
    21:00 +23°C° 0 mm 1 m/S 759 mmHg 65%
    22:00 +22°C° 0 mm 1 m/S 759 mmHg 69%
    23:00 +21°C° 0 mm 1 m/S 759 mmHg 71%

    20 August, Montag

    Zeit Temperatur Niederschläge Wind Luftdruck Luftfeuchtigkeit
    00:00 +21°C° 0 mm 1 m/S 759 mmHg 74%
    01:00 +20°C° 0 mm 1 m/S 759 mmHg 77%
    02:00 +20°C° 0 mm 1 m/S 758 mmHg 78%
    03:00 +20°C° 0 mm 1 m/S 758 mmHg 80%
    04:00 +19°C° 0 mm 1 m/S 758 mmHg 82%
    05:00 +20°C° 0 mm 1 m/S 758 mmHg 81%
    06:00 +19°C° 0 mm 2 m/S 758 mmHg 80%
    07:00 +20°C° 0 mm 2 m/S 758 mmHg 79%
    08:00 +21°C° 0 mm 3 m/S 758 mmHg 73%
    09:00 +22°C° 0 mm 3 m/S 758 mmHg 68%
    10:00 +24°C° 0 mm 3 m/S 758 mmHg 62%
    11:00 +23°C° 0 mm 4 m/S 758 mmHg 62%
    12:00 +25°C° 0 mm 4 m/S 758 mmHg 62%
    13:00 +25°C° 0 mm 4 m/S 758 mmHg 62%
    14:00 +25°C° 0 mm 3 m/S 758 mmHg 61%
    15:00 +25°C° 0 mm 3 m/S 758 mmHg 60%
    16:00 +26°C° 0 mm 3 m/S 758 mmHg 59%
    17:00 +25°C° 0 mm 3 m/S 758 mmHg 63%
    18:00 +24°C° 0 mm 2 m/S 758 mmHg 67%
    19:00 +24°C° 0 mm 2 m/S 758 mmHg 71%
    20:00 +23°C° 0 mm 2 m/S 758 mmHg 76%
    21:00 +21°C° 0 mm 2 m/S 759 mmHg 81%
    22:00 +21°C° 0 mm 1 m/S 759 mmHg 86%
    23:00 +20°C° 0 mm 1 m/S 759 mmHg 88%

    21 August, Dienstag

    Zeit Temperatur Niederschläge Wind Luftdruck Luftfeuchtigkeit
    00:00 +20°C° 0 mm 1 m/S 759 mmHg 89%
    01:00 +19°C° 0 mm 1 m/S 759 mmHg 91%
    02:00 +19°C° 0 mm 1 m/S 759 mmHg 92%
    03:00 +19°C° 0 mm 1 m/S 759 mmHg 93%
    04:00 +18°C° 0 mm 1 m/S 759 mmHg 93%
    05:00 +19°C° 0 mm 1 m/S 759 mmHg 92%
    06:00 +19°C° 0 mm 1 m/S 760 mmHg 91%
    07:00 +20°C° 0 mm 1 m/S 760 mmHg 89%
    08:00 +20°C° 0 mm 1 m/S 760 mmHg 84%
    09:00 +21°C° 0 mm 1 m/S 760 mmHg 79%
    10:00 +22°C° 0 mm 1 m/S 760 mmHg 74%
    11:00 +24°C° 0 mm 1 m/S 760 mmHg 66%
    12:00 +26°C° 0 mm 1 m/S 759 mmHg 59%
    13:00 +27°C° 0 mm 1 m/S 759 mmHg 52%
    14:00 +28°C° 0 mm 1 m/S 759 mmHg 49%
    15:00 +28°C° 0 mm 1 m/S 758 mmHg 46%
    16:00 +29°C° 0 mm 1 m/S 758 mmHg 44%
    17:00 +28°C° 0 mm 1 m/S 758 mmHg 48%
    18:00 +27°C° 0 mm 1 m/S 758 mmHg 52%
    19:00 +26°C° 0 mm 1 m/S 758 mmHg 56%
    20:00 +25°C° 0 mm 1 m/S 758 mmHg 60%
    21:00 +23°C° 0 mm 1 m/S 758 mmHg 63%
    22:00 +22°C° 0 mm 1 m/S 758 mmHg 66%
    23:00 +22°C° 0 mm 1 m/S 758 mmHg 68%

    22 August, Mittwoch

    Zeit Temperatur Niederschläge Wind Luftdruck Luftfeuchtigkeit
    00:00 +21°C° 0 mm 1 m/S 758 mmHg 70%
    01:00 +21°C° 0 mm 1 m/S 758 mmHg 72%
    02:00 +21°C° 0 mm 1 m/S 757 mmHg 73%
    03:00 +20°C° 0 mm 1 m/S 757 mmHg 74%
    04:00 +20°C° 0 mm 1 m/S 757 mmHg 75%
    05:00 +21°C° 0 mm 1 m/S 757 mmHg 74%
    06:00 +21°C° 0 mm 1 m/S 757 mmHg 72%
    07:00 +21°C° 0 mm 2 m/S 757 mmHg 70%
    08:00 +24°C° 0 mm 2 m/S 757 mmHg 64%
    09:00 +26°C° 0 mm 2 m/S 757 mmHg 57%
    10:00 +27°C° 0 mm 2 m/S 757 mmHg 50%
    11:00 +28°C° 0 mm 3 m/S 757 mmHg 48%
    12:00 +29°C° 0 mm 3 m/S 756 mmHg 45%
    13:00 +30°C° 0 mm 3 m/S 756 mmHg 43%
    14:00 +30°C° 0 mm 3 m/S 756 mmHg 43%
    15:00 +30°C° 0 mm 3 m/S 756 mmHg 44%
    16:00 +30°C° 0 mm 3 m/S 756 mmHg 44%
    17:00 +29°C° 0,1 mm 3 m/S 756 mmHg 53%
    18:00 +27°C° 0,1 mm 3 m/S 756 mmHg 61%
    19:00 +25°C° 0,1 mm 3 m/S 756 mmHg 69%
    20:00 +24°C° 0 mm 3 m/S 757 mmHg 74%
    21:00 +23°C° 0 mm 2 m/S 757 mmHg 79%
    22:00 +20°C° 0 mm 2 m/S 757 mmHg 85%
    23:00 +21°C° 0,2 mm 1 m/S 757 mmHg 86%
    Mehr zeigen